Home > Weather > Clearwater > Past weeks

Flag for U.S.A. Weather for the Past 2 Weeks in Clearwater, Florida, U.S.A.

Now
48 °F

Passing clouds.


Feels Like: 45 °F
Forecast: 53 / 68 °F
Wind: 6 mph from South

Location: St. Petersburg / Clearwater International Airport

Current Time: Feb 12, 2016 at 5:37:50 AM

Latest Report: Feb 12, 2016 at 4:53 AM


Visibility: 8 mi

Pressure: 30.26 "Hg

Humidity: 96%

Dew point: 47 °F

Location of ClearwaterLocation

Historic Weather in Clearwater — Graph

°F

Clearwater Temperature Yesterday

Maximum temperature yesterday: 65 °F (at 2:53 PM)
Minimum temperature yesterday: 41 °F (at 4:53 AM)
Average temperature yesterday: 52 °F

High & Low Weather Summary for the Past Weeks

 TemperatureHumidityPressure
High84 °F (Feb 3, 12:53 PM)100% (Jan 28, 3:53 AM)30.35 "Hg (Jan 28, 3:53 AM)
Low41 °F (Feb 8, 4:53 AM)28% (Feb 5, 2:53 PM)29.75 "Hg (Jan 28, 2:53 PM)
Average60 °F73%30.09 "Hg
* Reported Jan 28 3:53 AM — Feb 12 3:53 AM, Clearwater, Weather by CustomWeather, © 2016

Note: Actual official high and low records may vary slightly from our data, if they occured in-between our weather recording intervals... More about our weather records

Advertising

Clearwater Weather History for the Previous 24 Hours

 ConditionsComfort  
Time TempWeatherWind HumidityBarometerVisibility
3:53 AM
Fri, Feb 12
49 °FClear.3 mph97%30.25 "Hg10 mi
2:53 AM49 °FFog.No wind97%30.26 "Hg2 mi
1:53 AM52 °FClear.3 mph93%30.27 "Hg10 mi
12:53 AM52 °FClear.6 mph93%30.29 "Hg10 mi
11:53 PM
Thu, Feb 11
51 °FClear.No wind92%30.30 "Hg9 mi
10:53 PM50 °FClear.5 mph93%30.30 "Hg10 mi
9:53 PM52 °FClear.6 mph89%30.30 "Hg10 mi
8:53 PM53 °FClear.5 mph83%30.30 "Hg10 mi
7:53 PM55 °FClear.7 mph77%30.29 "Hg10 mi
6:53 PM56 °FClear.7 mph70%30.28 "Hg10 mi
5:53 PM61 °FSunny.9 mph58%30.27 "Hg10 mi
3:53 PM65 °FSunny.10 mph52%30.25 "Hg10 mi
2:53 PM65 °FSunny.6 mph49%30.25 "Hg10 mi
1:53 PM64 °FSunny.6 mph50%30.27 "Hg10 mi
12:53 PM63 °FSunny.5 mph48%30.30 "Hg10 mi
11:53 AM59 °FSunny.3 mph51%30.33 "Hg10 mi
10:53 AM55 °FSunny.7 mph57%30.34 "Hg10 mi
9:53 AM52 °FSunny.7 mph66%30.35 "Hg10 mi
8:53 AM51 °FSunny.9 mph71%30.34 "Hg10 mi
7:53 AM50 °FSunny.7 mph80%30.32 "Hg10 mi
6:53 AM49 °FClear.6 mph84%30.31 "Hg10 mi
5:53 AM43 °FClear.No wind89%30.28 "Hg10 mi
Weather by CustomWeather, © 2016

See weather overviewHow to use our weather pages